Flag for United Arab Emirates Weather past 2 weeks in Abu Dhabi, Abu Dhabi, United Arab Emirates

Now
91 °F

Clear.


Feels Like: 111 °F
Forecast: 92 / 105 °F
Wind: 6 mph from North

Location: Abu Dhabi Bateen Airport

Current Time: Sep 3, 2014 at 12:54:37 AM

Latest Report: Sep 3, 2014 at 12:00 AM


Visibility: 10 mi

Pressure: 29.53 "Hg

Humidity: 71%

Dew point: 81 °F

Location of Abu DhabiLocation

Historic Weather in Abu Dhabi — Graph

°F

Abu Dhabi temperature yesterday

Maximum temperature yesterday: 108 °F (at 2:00 PM)
Minimum temperature yesterday: 86 °F (at 4:00 AM)
Average temperature yesterday: 93 °F

Past Weeks' High & Low Weather Summary

 TemperatureHumidityPressure
High109 °F (Aug 29, 3:00 PM)89% (Sep 1, 6:00 AM)29.74 "Hg (Sep 1, 6:00 AM)
Low86 °F (Aug 31, 6:00 AM)18% (Sep 1, 12:00 PM)29.45 "Hg (Aug 31, 6:00 PM)
Average96 °F50%29.58 "Hg
* Reported Aug 18 11:00 PM — Sep 2 11:00 PM, Abu Dhabi, Weather by CustomWeather, © 2014

Note: Actual official high and low records may vary slightly from our data, if they occured in-between our weather recording intervals... More about our weather records

Advertising

Abu Dhabi weather history for previous 24 hours

 ConditionsComfort  
Time TempWeatherWind HumidityBarometerVisibility
11:00 PM
Sep 2
91 °FPassing clouds.6 mph75%29.53 "HgN/A
10:00 PM91 °FClear.8 mph75%29.53 "Hg10 mi
9:00 PM91 °FClear.9 mph75%29.53 "Hg10 mi
8:00 PM91 °FClear.9 mph80%29.50 "Hg10 mi
7:00 PM93 °FClear.12 mph63%29.50 "Hg10 mi
6:00 PM97 °FSunny.15 mph47%29.47 "Hg10 mi
5:00 PM104 °FPassing clouds.16 mph33%29.47 "HgN/A
4:00 PM100 °FPassing clouds.14 mph42%29.47 "HgN/A
3:00 PM104 °FPassing clouds.12 mph38%29.47 "HgN/A
2:00 PM108 °FPassing clouds.10 mph25%29.47 "HgN/A
1:00 PM104 °FSunny.8 mph31%29.50 "Hg10 mi
12:00 PM100 °FPassing clouds.8 mph45%29.53 "HgN/A
11:00 AM97 °FClear.7 mph50%29.53 "Hg6 mi
10:00 AM93 °FClear.8 mph63%29.56 "Hg5 mi
9:00 AM90 °FScattered clouds.9 mph79%29.53 "Hg4 mi
8:01 AM90 °FPartly sunny.6 mph75%29.53 "Hg4 mi
8:00 AM90 °FPassing clouds.N/A71%29.53 "Hg4 mi
7:00 AM88 °FClear.5 mph75%29.50 "Hg6 mi
6:00 AM88 °FPassing clouds.6 mph75%29.50 "HgN/A
5:00 AM86 °FPassing clouds.3 mph84%29.47 "HgN/A
4:00 AM86 °FClear.2 mph84%29.45 "Hg10 mi
3:00 AM88 °FClear.2 mph79%29.45 "Hg10 mi
2:00 AM88 °FClear.2 mph75%29.47 "Hg10 mi
1:00 AM90 °FPassing clouds.5 mph71%29.47 "HgN/A
12:00 AM90 °FPassing clouds.3 mph79%29.50 "HgN/A
Weather by CustomWeather, © 2014

See weather overviewHow to use our weather pages